TimeEST,TemperatureF,Dew PointF,Humidity,Sea Level PressureIn,VisibilityMPH,Wind Direction,Wind SpeedMPH,Gust SpeedMPH,PrecipitationIn,Events,Conditions,WindDirDegrees,DateUTC
12:02 AM,33.8,32.0,93,29.98,2.0,East,3.5,-,0.00,Rain,Light Rain,100,2013-01-12 05:02:00
12:24 AM,33.8,33.8,100,29.99,3.0,East,3.5,-,0.00,,Overcast,80,2013-01-12 05:24:00
12:53 AM,34.0,33.1,96,30.01,3.0,Calm,Calm,-,0.00,,Overcast,0,2013-01-12 05:53:00
1:01 AM,33.8,33.8,100,29.98,2.5,East,3.5,-,N/A,,Overcast,90,2013-01-12 06:01:00
1:17 AM,33.8,33.8,100,29.98,3.0,Calm,Calm,-,N/A,,Overcast,0,2013-01-12 06:17:00
1:53 AM,34.0,34.0,100,30.02,3.0,Calm,Calm,-,N/A,,Overcast,0,2013-01-12 06:53:00
2:25 AM,33.8,33.8,100,30.00,2.5,Calm,Calm,-,N/A,,Overcast,0,2013-01-12 07:25:00
2:53 AM,34.0,33.1,96,30.01,2.5,Calm,Calm,-,N/A,,Overcast,0,2013-01-12 07:53:00
3:03 AM,33.8,33.8,100,30.01,3.0,Calm,Calm,-,N/A,,Overcast,0,2013-01-12 08:03:00
3:53 AM,34.0,34.0,100,30.01,3.0,Calm,Calm,-,N/A,,Overcast,0,2013-01-12 08:53:00
4:20 AM,33.8,33.8,100,30.00,2.5,Calm,Calm,-,N/A,,Overcast,0,2013-01-12 09:20:00
4:27 AM,33.8,33.8,100,30.01,3.0,Calm,Calm,-,N/A,,Overcast,0,2013-01-12 09:27:00
4:41 AM,33.8,33.8,100,30.00,2.0,Calm,Calm,-,N/A,,Overcast,0,2013-01-12 09:41:00
4:53 AM,33.1,33.1,100,30.01,2.5,Calm,Calm,-,N/A,,Overcast,0,2013-01-12 09:53:00
5:19 AM,33.8,33.8,100,30.01,3.0,Calm,Calm,-,N/A,,Overcast,0,2013-01-12 10:19:00
5:53 AM,34.0,34.0,100,30.02,3.0,Calm,Calm,-,N/A,,Overcast,0,2013-01-12 10:53:00
6:53 AM,35.1,34.0,96,30.03,4.0,Calm,Calm,-,N/A,,Overcast,0,2013-01-12 11:53:00
7:53 AM,34.0,34.0,100,30.04,2.5,Calm,Calm,-,N/A,,Overcast,0,2013-01-12 12:53:00
8:33 AM,35.6,35.6,100,30.03,3.0,Calm,Calm,-,N/A,,Overcast,0,2013-01-12 13:33:00
8:41 AM,33.8,33.8,100,30.03,2.5,Calm,Calm,-,N/A,,Overcast,0,2013-01-12 13:41:00
8:53 AM,34.0,34.0,100,30.04,2.5,Calm,Calm,-,N/A,,Overcast,0,2013-01-12 13:53:00
9:16 AM,35.6,33.8,93,30.02,3.0,Calm,Calm,-,N/A,,Overcast,0,2013-01-12 14:16:00
9:53 AM,36.0,35.1,97,30.04,3.0,Calm,Calm,-,N/A,,Overcast,0,2013-01-12 14:53:00
10:02 AM,37.4,37.4,100,30.02,3.0,Calm,Calm,-,N/A,,Overcast,0,2013-01-12 15:02:00
10:32 AM,35.6,35.6,100,30.01,2.5,Calm,Calm,-,N/A,,Overcast,0,2013-01-12 15:32:00
10:49 AM,37.4,35.6,93,30.00,4.0,Calm,Calm,-,N/A,,Overcast,0,2013-01-12 15:49:00
10:53 AM,37.0,36.0,96,30.01,4.0,Calm,Calm,-,N/A,,Overcast,0,2013-01-12 15:53:00
11:12 AM,39.2,37.4,93,29.98,4.0,Calm,Calm,-,N/A,,Scattered Clouds,0,2013-01-12 16:12:00
11:53 AM,46.9,43.0,86,29.98,10.0,SE,4.6,-,N/A,,Partly Cloudy,140,2013-01-12 16:53:00
12:53 PM,48.0,42.1,80,29.98,10.0,SW,9.2,-,N/A,,Clear,220,2013-01-12 17:53:00
1:53 PM,48.9,42.1,77,29.98,10.0,SW,8.1,-,N/A,,Partly Cloudy,220,2013-01-12 18:53:00
2:53 PM,46.9,41.0,80,29.97,10.0,SW,6.9,-,N/A,,Clear,220,2013-01-12 19:53:00
3:53 PM,45.0,39.0,80,29.98,10.0,SSW,6.9,-,N/A,,Clear,210,2013-01-12 20:53:00
4:53 PM,46.9,39.9,77,29.97,10.0,SSW,6.9,-,N/A,,Clear,200,2013-01-12 21:53:00
5:53 PM,44.1,39.0,82,29.99,10.0,SW,10.4,-,N/A,,Clear,220,2013-01-12 22:53:00
6:53 PM,46.0,41.0,83,29.98,10.0,SSW,9.2,-,N/A,,Clear,200,2013-01-12 23:53:00
7:53 PM,44.6,39.2,81,29.98,10.0,SSW,6.9,-,N/A,,Clear,210,2013-01-13 00:53:00
8:53 PM,45.0,41.0,86,30.00,10.0,SW,4.6,-,N/A,,Clear,220,2013-01-13 01:53:00
9:53 PM,44.1,39.9,85,30.01,10.0,SW,4.6,-,N/A,,Clear,220,2013-01-13 02:53:00
10:53 PM,44.1,41.0,89,30.01,10.0,SSW,3.5,-,N/A,,Clear,200,2013-01-13 03:53:00
11:53 PM,43.0,41.0,93,30.01,10.0,SW,5.8,-,N/A,,Clear,220,2013-01-13 04:53:00